Hourly Weather Municipio Hato Corozal

Today, 6 December, Sunday

Time Temperature Precipitation Wind Pressure Humidity
00:00 +24°C° 0 mm 1 mps 737 mmHg 87%
01:00 +24°C° 0 mm 1 mps 737 mmHg 88%
02:00 +24°C° 0 mm 1 mps 736 mmHg 87%
03:00 +24°C° 0 mm 1 mps 736 mmHg 86%
04:00 +24°C° 0 mm 1 mps 736 mmHg 85%
05:00 +25°C° 0 mm 1 mps 736 mmHg 82%
06:00 +25°C° 0 mm 1 mps 737 mmHg 80%
07:00 +26°C° 0 mm 1 mps 737 mmHg 77%
08:00 +28°C° 0.2 mm 1 mps 737 mmHg 72%
09:00 +30°C° 0.2 mm 2 mps 738 mmHg 67%
10:00 +31°C° 0.2 mm 2 mps 738 mmHg 62%
11:00 +31°C° 0.5 mm 2 mps 737 mmHg 63%
12:00 +33°C° 0.5 mm 3 mps 736 mmHg 64%
13:00 +33°C° 0.5 mm 3 mps 735 mmHg 64%
14:00 +31°C° 0.5 mm 2 mps 735 mmHg 67%
15:00 +31°C° 0.5 mm 2 mps 735 mmHg 69%
16:00 +30°C° 0.5 mm 2 mps 734 mmHg 72%
17:00 +29°C° 0.3 mm 2 mps 735 mmHg 77%
18:00 +27°C° 0.3 mm 1 mps 735 mmHg 82%
19:00 +26°C° 0.3 mm 1 mps 736 mmHg 87%
20:00 +26°C° 0.1 mm 1 mps 736 mmHg 87%
21:00 +26°C° 0.1 mm 1 mps 737 mmHg 88%
22:00 +25°C° 0.1 mm 1 mps 737 mmHg 88%
23:00 +25°C° 0.1 mm 1 mps 737 mmHg 88%

Tomorrow, 7 December, Monday

Time Temperature Precipitation Wind Pressure Humidity
00:00 +25°C° 0.1 mm 1 mps 736 mmHg 88%
01:00 +25°C° 0.1 mm 1 mps 736 mmHg 88%
02:00 +25°C° 0.1 mm 1 mps 736 mmHg 86%
03:00 +25°C° 0.1 mm 1 mps 736 mmHg 85%
04:00 +25°C° 0.1 mm 1 mps 736 mmHg 83%
05:00 +25°C° 0.3 mm 1 mps 736 mmHg 83%
06:00 +26°C° 0.3 mm 1 mps 737 mmHg 83%
07:00 +24°C° 0.3 mm 0 mps 737 mmHg 82%
08:00 +27°C° 0.5 mm 1 mps 737 mmHg 78%
09:00 +29°C° 0.5 mm 2 mps 737 mmHg 74%
10:00 +30°C° 0.5 mm 2 mps 737 mmHg 70%
11:00 +30°C° 0.7 mm 2 mps 737 mmHg 70%
12:00 +31°C° 0.7 mm 3 mps 736 mmHg 69%
13:00 +31°C° 0.7 mm 3 mps 735 mmHg 69%
14:00 +31°C° 0.1 mm 3 mps 735 mmHg 69%
15:00 +31°C° 0.1 mm 3 mps 734 mmHg 69%
16:00 +30°C° 0.1 mm 3 mps 734 mmHg 68%
17:00 +29°C° 0.1 mm 2 mps 734 mmHg 74%
18:00 +27°C° 0.1 mm 1 mps 735 mmHg 80%
19:00 +26°C° 0.1 mm 1 mps 736 mmHg 86%
20:00 +26°C° 0 mm 1 mps 736 mmHg 86%
21:00 +25°C° 0 mm 1 mps 737 mmHg 86%
22:00 +25°C° 0 mm 1 mps 737 mmHg 86%
23:00 +25°C° 0 mm 1 mps 737 mmHg 85%

Day after tomorrow, 8 December, Tuesday

Time Temperature Precipitation Wind Pressure Humidity
00:00 +25°C° 0 mm 1 mps 737 mmHg 85%
01:00 +25°C° 0 mm 1 mps 737 mmHg 84%
02:00 +25°C° 0 mm 1 mps 736 mmHg 83%
03:00 +25°C° 0 mm 1 mps 736 mmHg 83%
04:00 +24°C° 0 mm 1 mps 736 mmHg 82%
05:00 +25°C° 0 mm 1 mps 737 mmHg 80%
06:00 +26°C° 0 mm 1 mps 737 mmHg 78%
07:00 +26°C° 0 mm 1 mps 738 mmHg 76%
08:00 +28°C° 0.2 mm 2 mps 738 mmHg 73%
09:00 +29°C° 0.2 mm 2 mps 738 mmHg 70%
10:00 +30°C° 0.2 mm 3 mps 739 mmHg 66%
11:00 +31°C° 0.4 mm 3 mps 738 mmHg 66%
12:00 +31°C° 0.4 mm 3 mps 737 mmHg 66%
13:00 +31°C° 0.4 mm 3 mps 736 mmHg 66%
14:00 +31°C° 0.1 mm 3 mps 736 mmHg 67%
15:00 +30°C° 0.1 mm 3 mps 735 mmHg 68%
16:00 +30°C° 0.1 mm 3 mps 735 mmHg 69%
17:00 +29°C° 0 mm 2 mps 735 mmHg 75%
18:00 +27°C° 0 mm 2 mps 736 mmHg 82%
19:00 +26°C° 0 mm 1 mps 736 mmHg 88%
20:00 +25°C° 0 mm 1 mps 737 mmHg 89%
21:00 +25°C° 0 mm 1 mps 737 mmHg 90%
22:00 +24°C° 0 mm 1 mps 738 mmHg 92%
23:00 +24°C° 0 mm 1 mps 737 mmHg 90%

9 December, Wednesday

Time Temperature Precipitation Wind Pressure Humidity
00:00 +24°C° 0 mm 1 mps 737 mmHg 89%
01:00 +24°C° 0 mm 1 mps 737 mmHg 87%
02:00 +24°C° 0 mm 1 mps 737 mmHg 85%
03:00 +23°C° 0 mm 1 mps 737 mmHg 82%
04:00 +23°C° 0 mm 1 mps 737 mmHg 80%
05:00 +24°C° 0 mm 1 mps 737 mmHg 77%
06:00 +25°C° 0 mm 1 mps 738 mmHg 75%
07:00 +25°C° 0 mm 1 mps 738 mmHg 72%
08:00 +27°C° 0 mm 2 mps 739 mmHg 66%
09:00 +30°C° 0 mm 2 mps 739 mmHg 60%
10:00 +33°C° 0 mm 3 mps 739 mmHg 54%
11:00 +33°C° 0 mm 3 mps 738 mmHg 53%
12:00 +34°C° 0 mm 3 mps 737 mmHg 52%
13:00 +34°C° 0 mm 3 mps 736 mmHg 51%
14:00 +33°C° 0 mm 3 mps 736 mmHg 54%
15:00 +33°C° 0 mm 3 mps 736 mmHg 57%
16:00 +31°C° 0 mm 3 mps 735 mmHg 60%
17:00 +30°C° 0 mm 2 mps 736 mmHg 68%
18:00 +28°C° 0 mm 2 mps 736 mmHg 75%
19:00 +26°C° 0 mm 1 mps 737 mmHg 83%
20:00 +25°C° 0 mm 1 mps 737 mmHg 84%
21:00 +25°C° 0 mm 1 mps 738 mmHg 84%
22:00 +25°C° 0 mm 1 mps 738 mmHg 84%
23:00 +24°C° 0 mm 1 mps 738 mmHg 83%

10 December, Thursday

Time Temperature Precipitation Wind Pressure Humidity
00:00 +24°C° 0 mm 1 mps 737 mmHg 81%
01:00 +24°C° 0 mm 1 mps 737 mmHg 79%
02:00 +24°C° 0 mm 1 mps 737 mmHg 78%
03:00 +23°C° 0 mm 1 mps 737 mmHg 77%
04:00 +23°C° 0 mm 1 mps 736 mmHg 75%
05:00 +24°C° 0 mm 1 mps 737 mmHg 73%
06:00 +24°C° 0 mm 1 mps 737 mmHg 70%
07:00 +25°C° 0 mm 1 mps 738 mmHg 68%
08:00 +27°C° 0 mm 2 mps 738 mmHg 63%
09:00 +29°C° 0 mm 3 mps 738 mmHg 58%
10:00 +33°C° 0 mm 4 mps 738 mmHg 54%
11:00 +33°C° 0 mm 4 mps 737 mmHg 52%
12:00 +34°C° 0 mm 4 mps 737 mmHg 51%
13:00 +34°C° 0 mm 4 mps 736 mmHg 50%
14:00 +34°C° 0 mm 4 mps 735 mmHg 53%
15:00 +33°C° 0 mm 3 mps 735 mmHg 55%
16:00 +33°C° 0 mm 3 mps 734 mmHg 58%
17:00 +30°C° 0 mm 3 mps 735 mmHg 67%
18:00 +28°C° 0 mm 2 mps 735 mmHg 77%
19:00 +26°C° 0 mm 1 mps 735 mmHg 86%
20:00 +25°C° 0 mm 1 mps 736 mmHg 87%
21:00 +25°C° 0 mm 1 mps 736 mmHg 89%
22:00 +25°C° 0 mm 1 mps 737 mmHg 90%
23:00 +24°C° 0 mm 2 mps 736 mmHg 87%

11 December, Friday

Time Temperature Precipitation Wind Pressure Humidity
00:00 +24°C° 0 mm 2 mps 736 mmHg 85%
01:00 +24°C° 0 mm 2 mps 736 mmHg 82%
02:00 +24°C° 0 mm 2 mps 736 mmHg 80%
03:00 +24°C° 0 mm 2 mps 736 mmHg 78%
04:00 +23°C° 0 mm 2 mps 735 mmHg 75%
05:00 +24°C° 0 mm 2 mps 736 mmHg 73%
06:00 +25°C° 0 mm 2 mps 736 mmHg 70%
07:00 +25°C° 0 mm 2 mps 737 mmHg 67%
08:00 +27°C° 0 mm 3 mps 737 mmHg 64%
09:00 +29°C° 0 mm 3 mps 737 mmHg 61%
10:00 +32°C° 0 mm 4 mps 737 mmHg 57%
11:00 +33°C° 0 mm 4 mps 737 mmHg 56%
12:00 +34°C° 0 mm 4 mps 736 mmHg 55%
13:00 +34°C° 0 mm 4 mps 735 mmHg 53%
14:00 +34°C° 0.1 mm 4 mps 734 mmHg 56%
15:00 +33°C° 0.1 mm 4 mps 734 mmHg 59%
16:00 +32°C° 0.1 mm 4 mps 733 mmHg 62%
17:00 +30°C° 0 mm 3 mps 734 mmHg 70%
18:00 +28°C° 0 mm 2 mps 734 mmHg 77%
19:00 +26°C° 0 mm 2 mps 735 mmHg 84%
20:00 +26°C° 0 mm 2 mps 735 mmHg 85%
21:00 +25°C° 0 mm 2 mps 736 mmHg 86%
22:00 +25°C° 0 mm 2 mps 736 mmHg 86%
23:00 +24°C° 0 mm 2 mps 736 mmHg 85%
Show more

We Need Your Consent

Meteoprog and our Service Providers may store and access personal data such as cookies, device identifiers or other similar technologies on your device and process such data to personalise content and ads, as well as provide social media features and to analyse the traffic.

  • Store and/or access information on your device

    Cookies, device identifiers or other information can be stored or accessed on your device for the purposes indicated above.

  • Personalised ads and content, ad and content measurement, audience insights, and products development

    Ads and content can be personalised based on a profile. More data can be added to better personalise ads and content. Ad and content performance can be measured. Insights about the audience who saw the ads and content can be derived. Such data can be used to develop or improve user’s experience, systems and software.

By clicking ‘I Agree’ you will allow the use of indicated cookies, device identifiers, web beacons or other similar technologies. Your settings can be changed in the browser on your device.

For certain purposes, legitimate interests may be relied on, rather than consent. You can read more about this in our Privacy and Cookie Policy.